TimeMST,TemperatureF,Dew PointF,Humidity,Sea Level PressureIn,VisibilityMPH,Wind Direction,Wind SpeedMPH,Gust SpeedMPH,PrecipitationIn,Events,Conditions,WindDirDegrees,DateUTC
12:58 AM,18.3,18.1,99,30.62,10.0,NW,2.3,-,N/A,,Clear,310,2013-12-15 07:58:00
1:58 AM,17.1,16.9,99,30.62,10.0,NE,2.3,-,N/A,,Partly Cloudy,50,2013-12-15 08:58:00
2:58 AM,17.8,17.6,99,30.62,10.0,East,3.5,-,N/A,,Scattered Clouds,100,2013-12-15 09:58:00
3:43 AM,17.6,17.6,100,30.51,9.0,East,3.5,-,N/A,,Overcast,100,2013-12-15 10:43:00
3:58 AM,19.6,19.4,99,30.61,7.0,East,2.3,-,N/A,,Mostly Cloudy,90,2013-12-15 10:58:00
4:58 AM,18.9,18.9,100,30.60,6.0,SSE,4.6,-,N/A,,Overcast,150,2013-12-15 11:58:00
5:58 AM,20.3,20.3,100,30.60,8.0,East,4.6,-,N/A,,Overcast,100,2013-12-15 12:58:00
6:58 AM,20.8,20.8,100,30.61,7.0,ENE,6.9,-,N/A,,Overcast,70,2013-12-15 13:58:00
7:18 AM,21.2,21.2,100,30.48,10.0,East,6.9,-,N/A,,Overcast,100,2013-12-15 14:18:00
7:58 AM,19.9,19.6,99,30.59,10.0,East,5.8,-,N/A,,Overcast,100,2013-12-15 14:58:00
8:58 AM,20.3,19.9,99,30.59,10.0,East,6.9,-,N/A,,Scattered Clouds,90,2013-12-15 15:58:00
9:58 AM,22.8,22.6,99,30.62,10.0,SE,8.1,-,N/A,,Clear,130,2013-12-15 16:58:00
10:58 AM,27.3,23.9,87,30.61,10.0,SE,11.5,-,N/A,,Clear,130,2013-12-15 17:58:00
11:58 AM,29.5,24.1,80,30.59,10.0,ESE,12.7,-,N/A,,Mostly Cloudy,110,2013-12-15 18:58:00
12:58 PM,32.2,24.1,72,30.55,10.0,East,12.7,-,N/A,,Scattered Clouds,100,2013-12-15 19:58:00
1:58 PM,32.7,25.0,73,30.55,10.0,SSE,5.8,-,N/A,,Overcast,150,2013-12-15 20:58:00
2:58 PM,32.5,24.4,72,30.53,10.0,SSW,2.3,-,N/A,,Overcast,210,2013-12-15 21:58:00
3:58 PM,33.3,24.6,71,30.53,10.0,WNW,4.6,-,N/A,,Mostly Cloudy,300,2013-12-15 22:58:00
4:58 PM,31.8,26.1,79,30.52,10.0,Calm,Calm,-,N/A,,Mostly Cloudy,0,2013-12-15 23:58:00
5:58 PM,28.2,25.2,88,30.51,10.0,ESE,3.5,-,N/A,,Mostly Cloudy,120,2013-12-16 00:58:00
6:58 PM,28.0,27.3,97,30.51,10.0,East,4.6,-,N/A,,Overcast,100,2013-12-16 01:58:00
7:58 PM,28.2,27.5,97,30.53,10.0,NW,3.5,-,N/A,,Overcast,310,2013-12-16 02:58:00
8:58 PM,26.2,26.1,99,30.53,10.0,WNW,3.5,-,N/A,,Overcast,300,2013-12-16 03:58:00
9:43 PM,23.0,23.0,100,30.43,9.0,WNW,4.6,-,N/A,,Mostly Cloudy,300,2013-12-16 04:43:00
9:58 PM,23.5,23.2,99,30.54,9.0,WNW,3.5,-,N/A,,Scattered Clouds,300,2013-12-16 04:58:00
10:58 PM,21.9,21.9,100,30.54,9.0,NW,3.5,-,N/A,,Clear,320,2013-12-16 05:58:00
11:28 PM,21.2,21.2,100,30.45,9.0,NNW,2.3,-,N/A,,Clear,340,2013-12-16 06:28:00
11:38 PM,21.2,21.2,100,30.44,9.0,Calm,Calm,-,N/A,,Clear,0,2013-12-16 06:38:00
11:58 PM,21.7,21.6,99,30.54,9.0,NNW,2.3,-,N/A,,Clear,330,2013-12-16 06:58:00